CYGFM02

Last updated on Thu Nov 21 2024 00:02:20 GMT+0000 (Coordinated Universal Time)

1 41886U 16078C 24325.54637745 .00019540 00000+0 56656-3 0 9995 2 41886 34.9478 11.6139 0013107 194.4229 165.6115 15.34549604440237
UTC large
Height (km)
Speed (km/s)
/
Latitude / Longitude
Inclination (degrees)
Orbital Period (minutes)
Azimuth
Elevation
Range (km)
Doppler Factor

Next 0 passes for location: London (51.5072 / 0.1276)

Sorry there are no passes over London.